UZB55 UZTT-UZNU

Flight info

Callsign UZB55
Flight time N/A
Altitude 32000
Route N0450F320 DIBAD N193 LAPZE Y720 DIKNA
Aircraft A21N/M-VGDW/C

Departure

Time 2026-04-24 17:01
Airport Tashkent International Airport (UZTT)

Arrival

Time N/A
Airport UZNU
Time Latitude Longitude Altitude Speed Heading
2026-04-24 16:33 41.25158 69.26243 1387 ft 0 kts 180°
2026-04-24 16:51 41.25176 69.26243 1383 ft 4 kts 180°
2026-04-24 16:52 41.25199 69.26247 1383 ft 4 kts 217°
2026-04-24 16:52 41.25205 69.26269 1384 ft 4 kts 280°
2026-04-24 16:52 41.25202 69.26300 1382 ft 1 kts 270°
2026-04-24 16:52 41.25202 69.26278 1382 ft 4 kts 273°
2026-04-24 16:53 41.25212 69.26250 1387 ft 4 kts 318°
2026-04-24 16:53 41.25236 69.26242 1385 ft 4 kts 358°
2026-04-24 16:53 41.25257 69.26232 1385 ft 4 kts 317°
2026-04-24 16:53 41.25270 69.26201 1387 ft 4 kts 294°
2026-04-24 16:54 41.25274 69.26187 1383 ft 0 kts 292°
2026-04-24 16:58 41.25276 69.26180 1384 ft 2 kts 292°
2026-04-24 16:59 41.25286 69.26147 1385 ft 5 kts 292°
2026-04-24 16:59 41.25305 69.26088 1385 ft 8 kts 297°
2026-04-24 16:59 41.25429 69.26093 1380 ft 14 kts 65°
2026-04-24 17:00 41.25441 69.26159 1385 ft 1 kts 78°
2026-04-24 17:00 41.25472 69.26438 1386 ft 59 kts 83°
2026-04-24 17:00 41.25560 69.27271 1387 ft 123 kts 81°
2026-04-24 17:01 41.25900 69.30145 1855 ft 168 kts 81°
2026-04-24 17:01 41.26058 69.31723 2453 ft 176 kts 81°
2026-04-24 17:02 41.26406 69.35077 3552 ft 193 kts 82°
2026-04-24 17:02 41.26564 69.36918 4115 ft 211 kts 92°
2026-04-24 17:02 41.26036 69.38819 4541 ft 237 kts 130°
2026-04-24 17:02 41.24629 69.40107 4984 ft 260 kts 164°
2026-04-24 17:03 41.21218 69.38881 6607 ft 272 kts 227°
2026-04-24 17:03 41.20234 69.36728 7560 ft 274 kts 245°
2026-04-24 17:03 41.19397 69.34489 8572 ft 275 kts 240°
2026-04-24 17:04 41.18327 69.32375 9616 ft 276 kts 232°
2026-04-24 17:04 41.15850 69.28164 10805 ft 311 kts 240°
2026-04-24 17:04 41.15053 69.25440 11449 ft 323 kts 256°
2026-04-24 17:05 41.14932 69.22438 12284 ft 331 kts 273°
2026-04-24 17:05 41.15247 69.19386 13186 ft 336 kts 276°
2026-04-24 17:05 41.15976 69.13179 14786 ft 345 kts 276°
2026-04-24 17:06 41.16340 69.10014 15560 ft 349 kts 276°
2026-04-24 17:06 41.17052 69.03568 17101 ft 356 kts 276°
2026-04-24 17:06 41.17402 69.00337 17846 ft 360 kts 276°
2026-04-24 17:07 41.17644 68.98099 18348 ft 363 kts 276°
2026-04-24 17:07 41.18118 68.93679 19221 ft 367 kts 276°
2026-04-24 17:07 41.18832 68.86922 20565 ft 372 kts 276°
2026-04-24 17:08 41.19557 68.80056 21887 ft 377 kts 276°
2026-04-24 17:08 41.19921 68.76596 22551 ft 380 kts 276°
2026-04-24 17:08 41.20287 68.73104 23195 ft 383 kts 276°
2026-04-24 17:09 41.21022 68.66045 24324 ft 388 kts 276°
2026-04-24 17:09 41.21755 68.58946 25364 ft 393 kts 276°
2026-04-24 17:10 41.22126 68.55342 25872 ft 395 kts 276°
2026-04-24 17:10 41.23243 68.44383 27324 ft 403 kts 276°
2026-04-24 17:11 41.24380 68.33213 28697 ft 410 kts 276°
2026-04-24 17:12 41.26276 68.14200 30793 ft 417 kts 276°